Change the Weather History Date:

Saturday, May 25, 2013

  Actual Average Record
Temperature  
Mean Temperature 59 °F 60 °F  
Max Temperature 73 °F 74 °F 83 °F (2014)
Min Temperature 44 °F 47 °F 42 °F (2010)
Degree Days  
Heating Degree Days 6    
Month to date heating degree days 88  
Since 1 July heating degree days 2832  
Cooling Degree Days 0    
Month to date cooling degree days 15  
Year to date cooling degree days 18  
Growing Degree Days 8 (Base 50)    
Moisture  
Dew Point 45 °F    
Average Humidity 64    
Maximum Humidity 92    
Minimum Humidity 35    
Precipitation  
Precipitation 0.00 in - 0.52 in (1942)
Month to date precipitation 0.05  
Year to date precipitation 1.75  
Since 1 July precipitation 9.54  
Sea Level Pressure  
Sea Level Pressure 29.96 in    
Wind  
Wind Speed 10 mph (WSW)    
Max Wind Speed 20 mph    
Max Gust Speed 24 mph    
Visibility 10 miles    
Events      
T = Trace of Precipitation, MM = Missing Value Source: NWS Daily Summary

Daily Weather History Graph

Daily Weather History Graph

Search for Another Location

Airport or City:

Trip Planner

Search our weather history database for the weather conditions in past years. The results will help you decide how hot, cold, wet, or windy it might be!

Date:

Astronomy

May. 25, 2013 Rise Set
Actual Time 5:50 AM PDT 8:21 PM PDT
Civil Twilight 5:20 AM PDT 8:52 PM PDT
Nautical Twilight 4:42 AM PDT 9:30 PM PDT
Astronomical Twilight 4:00 AM PDT 10:12 PM PDT
Moon 9:15 PM PDT (5/25) 6:22 AM PDT (5/25)
Length of Visible Light 15h 32m
Length of Day
14h 31m
Waxing Gibbous, 99% of the Moon is Illuminated
May 25
Waxing Gibbous
May 31
Last Quarter
Jun 8
New
Jun 16
First Quarter
Jun 23
Full

Hourly Weather History & Observations

Time (PDT) Temp. Windchill Dew Point Humidity Pressure Visibility Wind Dir Wind Speed Gust Speed Precip Events Conditions
12:54 AM 51.1 °F - 43.0 °F 74% 29.94 in 10.0 mi WSW 10.4 mph - N/A   Clear
1:54 AM 50.0 °F - 43.0 °F 77% 29.94 in 10.0 mi WSW 6.9 mph - N/A   Clear
2:54 AM 46.9 °F - 42.1 °F 83% 29.94 in 10.0 mi WSW 5.8 mph - N/A   Clear
3:54 AM 48.9 °F - 43.0 °F 80% 29.94 in 10.0 mi WSW 6.9 mph - N/A   Clear
4:54 AM 46.0 °F 43.9 °F 43.0 °F 89% 29.94 in 10.0 mi WNW 4.6 mph - N/A   Clear
5:54 AM 45.0 °F 43.5 °F 42.1 °F 90% 29.95 in 10.0 mi WNW 3.5 mph - N/A   Clear
6:54 AM 48.0 °F - 44.1 °F 86% 29.96 in 10.0 mi West 4.6 mph - N/A   Clear
7:54 AM 51.1 °F - 44.1 °F 77% 29.97 in 10.0 mi Calm Calm - N/A   Clear
8:54 AM 55.0 °F - 43.0 °F 64% 29.98 in 10.0 mi SW 3.5 mph - N/A   Clear
9:54 AM 59.0 °F - 43.0 °F 55% 29.98 in 10.0 mi SSW 8.1 mph - N/A   Clear
10:54 AM 62.1 °F - 44.1 °F 52% 29.98 in 10.0 mi SSW 5.8 mph - N/A   Clear
11:54 AM 64.0 °F - 45.0 °F 50% 29.98 in 10.0 mi SW 10.4 mph - N/A   Clear
12:54 PM 66.9 °F - 46.0 °F 47% 29.98 in 10.0 mi SSW 10.4 mph - N/A   Clear
1:54 PM 70.0 °F - 46.9 °F 44% 29.97 in 10.0 mi SSW 13.8 mph - N/A   Clear
2:54 PM 70.0 °F - 46.0 °F 42% 29.96 in 10.0 mi SSW 16.1 mph - N/A   Clear
3:54 PM 72.0 °F - 43.0 °F 35% 29.95 in 10.0 mi WSW 16.1 mph 23.0 mph N/A   Clear
4:54 PM 68.0 °F - 43.0 °F 40% 29.95 in 10.0 mi WSW 18.4 mph - N/A   Clear
5:54 PM 64.9 °F - 45.0 °F 48% 29.95 in 10.0 mi SW 15.0 mph - N/A   Clear
6:54 PM 63.0 °F - 46.0 °F 54% 29.95 in 10.0 mi SW 17.3 mph 24.2 mph N/A   Clear
7:54 PM 57.9 °F - 46.9 °F 67% 29.95 in 10.0 mi SW 10.4 mph - N/A   Clear
8:54 PM 55.0 °F - 46.9 °F 74% 29.97 in 10.0 mi SW 8.1 mph - N/A   Clear
9:54 PM 53.1 °F - 46.9 °F 80% 29.98 in 10.0 mi Variable 4.6 mph - N/A   Clear
10:54 PM 53.1 °F - 46.9 °F 80% 29.99 in 10.0 mi West 13.8 mph - N/A   Clear
11:54 PM 52.0 °F - 46.9 °F 83% 30.00 in 10.0 mi WSW 10.4 mph - N/A   Clear